[[{"header":{"parameterUnit":"m.s-1","parameterCategory":1,"la1":30.2991,"la2":30.254,"lo1":-89.0895,"lo2":-89.0444,"dy":0.0017,"dx":0.0017,"nx":28,"ny":28,"refTime":"2024-06-24T21:00:00:Z","depth":0,"parameterNumber":2,"parameterNumberName":"U-component_of_WINDS"},"data":[0,0,0,0,0,0,0,0,0,0,0,0,0,0,0,0,0,0,0,0,0,0,0,0,0,0,0,0,0,0,0,0,0,0,0,0,0,0,0,0,0,0,0,0,0,0,0,0,0,0,0,0,0,0,0,0,0,0,3.1854,3.1854,0,3.1887,3.1887,3.1887,3.1874,3.1873,3.1872,3.1872,3.1906,3.1908,3.191,0,0,0,0,0,0,0,0,0,0,0,0,0,3.1783,3.1784,3.1854,3.1854,3.1855,3.1887,3.1887,3.1887,3.1874,3.1873,3.1872,3.1871,3.1906,3.1908,3.191,0,0,0,0,0,0,0,0,0,0,0,0,0,3.1814,3.1785,3.1854,3.1852,3.1852,3.1886,3.1887,3.1888,3.1874,3.1873,3.1872,3.1871,3.1905,3.1908,3.191,3.1948,0,0,3.1918,3.1919,0,0,0,0,0,0,0,0,3.1813,3.1817,3.1852,3.1852,3.1852,3.1875,3.1875,3.1908,3.1875,3.1866,3.1872,3.187,3.1897,3.19,3.1909,3.195,3.1952,3.1918,3.1919,3.192,3.1921,0,0,0,0,0,0,0,3.181,3.1816,3.1867,3.1852,3.1853,3.185,3.1854,3.1881,3.1888,3.1867,3.1866,3.187,3.1897,3.1906,3.1909,3.1952,3.1918,3.192,3.1921,3.1922,3.2028,3.2029,0,0,0,0,0,0,3.1808,3.1814,3.1866,3.1868,3.1829,3.1853,3.1856,3.1869,3.1887,3.1889,3.1871,3.1869,3.1903,3.1907,3.1911,3.1956,3.192,3.1923,3.1924,3.2027,3.2028,3.203,0,0,0,0,0,0,3.1806,3.1813,3.1864,3.1841,3.1847,3.1855,3.187,3.187,3.1879,3.189,3.1892,3.1879,3.1902,3.1907,3.1939,3.1957,3.1924,3.1926,3.2025,3.2027,3.2029,3.2049,0,0,0,0,0,0,3.1804,3.1812,3.1826,3.1841,3.1848,3.1892,3.1871,3.1872,3.1884,3.1882,3.1898,3.19,3.1901,3.1936,3.1942,3.196,3.1928,3.2023,3.2026,3.2028,3.2046,3.2051,3.2055,0,0,0,0,0,3.1802,3.183,3.1827,3.1833,3.1866,3.1893,3.1897,3.1898,3.1885,3.1899,3.1907,3.1899,3.1955,3.1939,3.1946,3.1965,3.2022,3.2025,3.2028,3.2044,3.205,3.2055,0,0,0,0,0,0,3.1816,3.1832,3.1828,3.1862,3.1876,3.189,3.1908,3.1904,3.1922,3.1919,3.192,3.1924,3.1957,3.1965,3.1947,3.2004,3.1987,3.1992,3.1997,3.2003,3.2007,3.2003,3.193,0,0,0,0,0,3.1824,3.1844,3.1857,3.1885,3.1893,3.19,3.1911,3.1911,3.1926,3.1932,3.1941,3.1956,3.1977,3.1991,3.2011,3.2049,3.2052,3.2066,3.207,3.2074,3.2077,3.2098,3.2104,3.204,3.2039,3.2039,0,0,3.1838,3.185,3.1862,3.1889,3.1899,3.1921,3.1904,3.1927,3.1943,3.1935,3.1965,3.1974,3.1991,3.2026,3.2042,3.2034,3.2096,3.2078,3.208,3.2081,3.2101,3.2107,3.2113,3.2042,3.2041,3.2041,0,0,3.1875,3.1886,3.1911,3.1923,3.194,3.1945,3.1952,3.1967,3.1972,3.2003,3.1998,3.2018,3.2054,3.2066,3.2077,3.2123,3.2117,3.213,3.2152,3.2172,3.2177,3.2182,3.2197,3.2203,3.2134,3.2134,3.2134,0,3.1891,3.1923,3.1925,3.1949,3.1961,3.1956,3.1982,3.1993,3.2016,3.2025,3.2016,3.2062,3.2073,3.2111,3.2123,3.2132,3.214,3.2126,3.2176,3.2181,3.2185,3.22,3.2206,3.2135,3.2135,3.2135,3.2135,0,3.1941,3.1964,3.1982,3.2004,3.2019,3.2044,3.2051,3.2066,3.2066,3.2072,3.2104,3.2118,3.2141,3.2151,3.2151,3.219,3.2184,3.2176,3.2158,3.2192,3.2206,3.2212,3.2137,3.2137,3.2136,3.2136,0,0,3.1984,3.201,3.2016,3.2027,3.2047,3.2065,3.2091,3.2113,3.2126,3.2143,3.2164,3.2197,3.219,3.2203,3.2205,3.2223,3.2258,3.2213,3.2213,3.2219,3.2301,3.2305,3.2311,3.2255,3.2256,3.2257,3.2299,0,3.2022,3.2065,3.207,3.211,3.213,3.2128,3.2151,3.2166,3.2174,3.2193,3.2202,3.2224,3.2214,3.2222,3.224,3.2249,3.2274,3.2247,3.2274,3.2275,3.2267,3.2319,3.2323,3.2361,3.2304,3.2305,3.2306,0,3.207,3.2089,3.2131,3.2149,3.2158,3.2178,3.22,3.2219,3.2237,3.2242,3.2258,3.2258,3.2285,3.2269,3.2307,3.2289,3.2301,3.2308,3.231,3.231,3.229,3.2318,3.2373,3.2378,3.2315,3.2314,3.2313,0,3.2095,3.2132,3.2162,3.2171,3.2194,3.2208,3.2219,3.2236,3.225,3.227,3.2279,3.2302,3.2314,3.2333,3.2339,3.2327,3.2377,3.2361,3.2381,3.2381,3.2389,3.2388,3.2444,3.2401,3.2401,3.2401,3.2401,0,3.2135,3.216,3.2173,3.2191,3.222,3.2227,3.2255,3.2265,3.2281,3.2302,3.2302,3.2322,3.233,3.2352,3.2358,3.2388,3.2394,3.2398,3.2399,3.2397,3.2396,3.2403,3.2399,3.2402,3.2402,3.2402,3.2402,0,3.2166,3.2176,3.2209,3.2229,3.2235,3.2255,3.2272,3.229,3.23,3.2325,3.2332,3.2346,3.2371,3.2381,3.2411,3.2416,3.245,3.245,3.2443,3.2443,3.2461,3.2459,3.2522,3.253,3.2484,3.2484,3.2485,0,3.219,3.2209,3.2232,3.2246,3.2257,3.228,3.2294,3.2302,3.2318,3.2341,3.2357,3.2382,3.2402,3.2443,3.2456,3.248,3.2479,3.25,3.2482,3.2479,3.2477,3.2475,3.2476,3.2502,3.2502,3.2502,3.2503,0,3.223,3.2234,3.2255,3.2278,3.2296,3.2315,3.2333,3.2344,3.2356,3.2373,3.2399,3.2415,3.2447,3.2472,3.2497,3.2508,3.2507,3.2509,3.2514,3.2511,3.2505,3.2507,3.245,3.2506,3.2506,3.2506,3.2506,3.2505,3.2257,3.2274,3.2293,3.2317,3.2332,3.235,3.2368,3.238,3.2401,3.2428,3.2432,3.246,3.248,3.2513,3.2526,3.2548,3.2543,3.2551,3.2553,3.2554,3.2555,3.2504,3.2553,3.2553,3.2553,3.2553,3.2553,0,3.2295,3.2308,3.233,3.2356,3.2375,3.2374,3.2395,3.2411,3.2435,3.2454,3.2475,3.2505,3.253,3.2546,3.2571,3.2586,3.2586,3.2592,3.259,3.2593,3.2559,3.2551,3.2592,3.2592,3.2592,3.2592,3.2592,3.2592,3.2317,3.2347,3.2354,3.2392,3.2405,3.2432,3.2444,3.2461,3.2476,3.2509,3.253,3.2541,3.2559,3.2586,3.2609,3.2614,3.2622,3.2628,3.2632,3.2599,3.2595,3.2591,3.2583,3.2631,3.2631,3.2664,3.2664,3.2664]},{"header":{"parameterUnit":"m.s-1","parameterCategory":1,"la1":30.2991,"la2":30.254,"lo1":-89.0895,"lo2":-89.0444,"dy":0.0017,"dx":0.0017,"nx":28,"ny":28,"refTime":"2024-06-24T21:00:00:Z","depth":0,"parameterNumber":3,"parameterNumberName":"V-component_of_WINDS"},"data":[0,0,0,0,0,0,0,0,0,0,0,0,0,0,0,0,0,0,0,0,0,0,0,0,0,0,0,0,0,0,0,0,0,0,0,0,0,0,0,0,0,0,0,0,0,0,0,0,0,0,0,0,0,0,0,0,0,0,3.7889,3.789,0,3.7913,3.7913,3.7914,3.7902,3.7901,3.7901,3.79,3.7921,3.7922,3.7923,0,0,0,0,0,0,0,0,0,0,0,0,0,3.783,3.7831,3.7889,3.789,3.789,3.7913,3.7913,3.7914,3.7902,3.7901,3.79,3.79,3.7921,3.7922,3.7923,0,0,0,0,0,0,0,0,0,0,0,0,0,3.7855,3.7831,3.7889,3.7887,3.7887,3.7913,3.7913,3.7914,3.7902,3.7901,3.79,3.7899,3.792,3.7922,3.7924,3.7952,0,0,3.7929,3.7929,0,0,0,0,0,0,0,0,3.7853,3.7857,3.7887,3.7887,3.7887,3.7904,3.79,3.7927,3.7902,3.7896,3.79,3.7899,3.7916,3.7918,3.7924,3.7953,3.7954,3.7929,3.793,3.7931,3.7931,0,0,0,0,0,0,0,3.7852,3.7856,3.7899,3.7887,3.7887,3.7883,3.7886,3.7905,3.7911,3.7897,3.7896,3.7899,3.7916,3.7923,3.7925,3.7955,3.7929,3.793,3.7931,3.7932,3.8007,3.8008,0,0,0,0,0,0,3.785,3.7854,3.7898,3.7899,3.7868,3.7885,3.7888,3.7899,3.791,3.7911,3.79,3.7898,3.792,3.7923,3.7925,3.7958,3.7931,3.7932,3.7933,3.8006,3.8007,3.8008,0,0,0,0,0,0,3.7849,3.7855,3.7897,3.7877,3.7882,3.7887,3.79,3.79,3.7907,3.7913,3.7913,3.7906,3.7919,3.7923,3.7946,3.7959,3.7933,3.7934,3.8005,3.8006,3.8008,3.8025,0,0,0,0,0,0,3.7848,3.7854,3.7866,3.7877,3.7883,3.7918,3.7901,3.7901,3.791,3.7909,3.7919,3.792,3.7919,3.7943,3.7947,3.7961,3.7936,3.8004,3.8006,3.8007,3.8024,3.8027,3.803,0,0,0,0,0,3.7846,3.787,3.7867,3.7872,3.7898,3.7919,3.7922,3.7922,3.7912,3.7923,3.7926,3.7919,3.7957,3.7946,3.795,3.7964,3.8003,3.8005,3.8007,3.8022,3.8027,3.803,0,0,0,0,0,0,3.7858,3.7871,3.7868,3.7896,3.7907,3.7917,3.7931,3.7927,3.7939,3.7937,3.7935,3.7937,3.7961,3.7965,3.7952,3.7992,3.7978,3.7981,3.7988,3.7992,3.7996,3.7993,3.7937,0,0,0,0,0,3.7865,3.7882,3.7891,3.7916,3.7921,3.7925,3.7934,3.7933,3.7943,3.7947,3.7953,3.7962,3.7975,3.7984,3.7998,3.8025,3.8026,3.8037,3.804,3.8043,3.8045,3.8058,3.8063,3.8015,3.8015,3.8015,0,0,3.7878,3.7887,3.7897,3.7918,3.7926,3.7942,3.7929,3.7947,3.7958,3.795,3.7971,3.7976,3.7986,3.801,3.8021,3.8014,3.8059,3.8046,3.8048,3.8048,3.8061,3.8065,3.8069,3.8017,3.8017,3.8016,0,0,3.7909,3.7919,3.7939,3.7947,3.796,3.7963,3.7968,3.7978,3.7981,3.8003,3.7997,3.801,3.8034,3.8041,3.8048,3.8082,3.8075,3.8087,3.8104,3.8116,3.812,3.8123,3.8134,3.8138,3.8089,3.8089,3.8089,0,3.7923,3.7948,3.795,3.7968,3.7977,3.7971,3.7991,3.7999,3.8015,3.802,3.8013,3.8043,3.8049,3.8075,3.8083,3.8089,3.8093,3.8084,3.812,3.8123,3.8126,3.8136,3.814,3.809,3.809,3.809,3.809,0,3.7964,3.7981,3.7996,3.8012,3.8023,3.8042,3.8045,3.8056,3.8054,3.8057,3.8079,3.8087,3.8101,3.8107,3.8105,3.8132,3.8127,3.812,3.8106,3.8132,3.8141,3.8145,3.8092,3.8092,3.8091,3.8091,0,0,3.8002,3.802,3.8025,3.8031,3.8045,3.8058,3.8077,3.8091,3.8099,3.8111,3.8125,3.8146,3.8139,3.8147,3.8146,3.8157,3.8182,3.8149,3.8149,3.8153,3.821,3.8214,3.8218,3.8179,3.8179,3.818,3.8208,0,3.8032,3.8066,3.8068,3.8097,3.8112,3.8107,3.8123,3.8133,3.8136,3.8149,3.8152,3.8166,3.8157,3.8162,3.8173,3.8177,3.8193,3.8175,3.819,3.819,3.8185,3.8223,3.8227,3.8254,3.8212,3.8213,3.8213,0,3.8072,3.8085,3.8117,3.8127,3.8134,3.8148,3.8161,3.8174,3.8184,3.8186,3.8195,3.8192,3.821,3.8197,3.822,3.8207,3.8214,3.8216,3.8217,3.8217,3.8202,3.8222,3.8262,3.8265,3.8219,3.8219,3.8218,0,3.8094,3.812,3.8142,3.8148,3.8162,3.8172,3.8178,3.8187,3.8196,3.8207,3.8213,3.8226,3.8232,3.8242,3.8243,3.8234,3.8265,3.8253,3.8265,3.8265,3.827,3.827,3.8311,3.8278,3.8278,3.8278,3.8278,0,3.8127,3.8145,3.8152,3.8165,3.8185,3.8187,3.8207,3.8212,3.8221,3.8234,3.8231,3.8243,3.8244,3.8256,3.8257,3.8275,3.8278,3.8279,3.8278,3.8278,3.8277,3.828,3.8278,3.8279,3.8279,3.8279,3.8279,0,3.8154,3.8159,3.8182,3.8194,3.8197,3.8212,3.8221,3.8233,3.8237,3.8253,3.8257,3.8262,3.8276,3.8278,3.8295,3.8295,3.8316,3.8315,3.8313,3.8312,3.8324,3.8322,3.8366,3.8371,3.8337,3.8338,3.8338,0,3.8173,3.8188,3.8201,3.821,3.8217,3.8232,3.8241,3.8243,3.8252,3.8265,3.8275,3.8289,3.83,3.8323,3.8327,3.8339,3.8337,3.8352,3.8338,3.8337,3.8335,3.8333,3.8334,3.8353,3.8354,3.8354,3.8354,0,3.8206,3.8208,3.8222,3.8237,3.8248,3.8259,3.827,3.8277,3.8281,3.8291,3.8306,3.8315,3.8332,3.8345,3.8357,3.8362,3.8358,3.8359,3.8362,3.8361,3.8358,3.8358,3.8317,3.8357,3.8357,3.8357,3.8357,3.8356,3.8229,3.8241,3.8252,3.8267,3.8276,3.8286,3.8298,3.8303,3.8316,3.8331,3.8331,3.8347,3.8356,3.8373,3.8378,3.839,3.8385,3.839,3.8391,3.8392,3.8392,3.8358,3.8392,3.8392,3.8392,3.8392,3.8392,0,3.826,3.8267,3.8281,3.8297,3.8308,3.8306,3.8318,3.8327,3.8341,3.8351,3.8362,3.8379,3.8392,3.8398,3.841,3.8418,3.8417,3.8421,3.8419,3.842,3.8397,3.8392,3.8422,3.8422,3.8422,3.8422,3.8422,3.8422,3.8277,3.8297,3.83,3.8324,3.8331,3.8348,3.8354,3.8363,3.8371,3.839,3.8401,3.8405,3.8413,3.8426,3.8438,3.8439,3.8443,3.8448,3.8448,3.8425,3.8422,3.8419,3.8414,3.8449,3.8449,3.8471,3.8471,3.8471]}]]